Flag for Germany Weather past 2 weeks in Alfeld (Leine), Lower Saxony, Germany

Now
81 °F

Sunny.


Feels Like: 81 °F
Forecast: 69 / 92 °F
Wind: 17 mph from Southeast

Location: Braunschweig

Current Time: Jul 2, 2015 at 11:53:11 AM

Latest Report: Jul 2, 2015 at 11:20 AM


Visibility: 10 mi

Pressure: 30.18 "Hg

Humidity: 45%

Dew point: 57 °F

Location of Alfeld (Leine)Location

Historic Weather in Alfeld (Leine) — Graph

°F

Alfeld (Leine) temperature yesterday

Maximum temperature yesterday: 84 °F (at 4:20 PM)
Minimum temperature yesterday: 61 °F (at 6:50 AM)
Average temperature yesterday: 77 °F

Past Weeks' High & Low Weather Summary

 TemperatureHumidityPressure
High84 °F (Jul 1, 4:20 PM)100% (Jun 18, 6:50 AM)30.27 "Hg (Jun 18, 6:50 AM)
Low50 °F (Jun 19, 6:20 AM)31% (Jul 1, 5:50 PM)29.68 "Hg (Jun 22, 6:50 PM)
Average65 °F64%30.05 "Hg
* Reported Jun 17 10:20 AM — Jul 2 10:50 AM, Alfeld (Leine), Weather by CustomWeather, © 2015

Note: Actual official high and low records may vary slightly from our data, if they occured in-between our weather recording intervals... More about our weather records

Advertising

Alfeld (Leine) weather history for previous 24 hours

 ConditionsComfort  
Time TempWeatherWind HumidityBarometerVisibility
10:50 AM
Thu, Jul 2
81 °FSunny.18 mph45%30.18 "Hg10 mi
10:20 AM77 °FSunny.17 mph51%30.18 "Hg10 mi
9:50 AM77 °FSunny.15 mph47%30.18 "Hg10 mi
9:20 AM75 °FSunny.14 mph50%30.18 "Hg10 mi
8:50 AM72 °FSunny.14 mph53%30.18 "Hg10 mi
8:20 AM72 °FSunny.14 mph53%30.21 "Hg10 mi
7:50 AM70 °FSunny.12 mph57%30.18 "Hg10 mi
7:20 AM68 °FSunny.12 mph60%30.18 "Hg10 mi
6:50 AM64 °FSunny.12 mph68%30.18 "Hg10 mi
1:50 AM63 °FClear.12 mph68%30.18 "Hg10 mi
1:20 AM64 °FClear.10 mph64%30.18 "Hg10 mi
9:50 PM
Wed, Jul 1
72 °FSunny.9 mph50%30.15 "Hg10 mi
9:20 PM77 °FSunny.7 mph42%30.15 "Hg10 mi
8:50 PM79 °FSunny.10 mph39%30.15 "Hg10 mi
8:20 PM81 °FSunny.14 mph37%30.15 "Hg10 mi
7:50 PM82 °FSunny.13 mph32%30.15 "Hg10 mi
7:20 PM82 °FSunny.13 mph32%30.15 "Hg10 mi
6:50 PM82 °FSunny.15 mph32%30.15 "Hg10 mi
6:20 PM82 °FSunny.15 mph35%30.15 "Hg10 mi
5:50 PM84 °FPassing clouds.13 mph31%30.15 "HgN/A
5:20 PM82 °FPassing clouds.14 mph32%30.15 "HgN/A
4:50 PM84 °FSunny.14 mph33%30.15 "Hg10 mi
4:20 PM84 °FPassing clouds.14 mph33%30.15 "HgN/A
3:50 PM82 °FPassing clouds.14 mph32%30.15 "HgN/A
3:20 PM82 °FSunny.15 mph35%30.18 "Hg10 mi
2:50 PM82 °FPassing clouds.14 mph32%30.18 "HgN/A
2:20 PM81 °FSunny.13 mph34%30.18 "Hg10 mi
1:50 PM81 °FSunny.12 mph37%30.18 "Hg10 mi
1:20 PM79 °FSunny.15 mph39%30.18 "Hg10 mi
12:50 PM77 °FSunny.13 mph42%30.21 "Hg10 mi
12:20 PM77 °FSunny.13 mph42%30.21 "Hg10 mi
11:50 AM77 °FSunny.13 mph44%30.21 "Hg10 mi
11:20 AM77 °FSunny.13 mph42%30.21 "Hg10 mi
Weather by CustomWeather, © 2015

See weather overviewHow to use our weather pages